Flight Track Log - Related Links

Times and Time Zones

All times are in EDT time to prevent confusion due to time zone crossing. See the N102WY flight status page for this flight to view local times or setup timezone preferences in your user account.

Time Position Orientation Groundspeed Altitude Reporting Facility
EDT Latitude Longitude Course Direction KTS MPH feet Rate Location/Type
05:28PM 41.7025 -107.0861 124° Southeast 291 335 17,100  Level Denver Center
05:29PM 41.6725 -106.9458 106° East 346 398 17,500 726 Climbing Denver Center
05:30PM 41.6458 -106.8206 106° East 363 418 18,600 774 Climbing Denver Center
05:31PM 41.6136 -106.6778 107° East 360 414 19,100 242 Climbing Denver Center
05:32PM 41.5828 -106.5528 108° East 368 423 19,100 871 Level Denver Center
05:33PM 41.5503 -106.4156 108° East 365 420 20,900 2,274 Climbing Denver Center
05:34PM 41.6436 -106.5824 124° Southeast  Level Estimated
05:34PM 41.5208 -106.2908 107° East 370 426 23,800  Level Denver Center
05:35PM 41.4847 -106.1422 108° East 377 434 25,100 629 Climbing Denver Center
05:36PM 41.4556 -106.0153 107° East 377 434 25,100  Level Denver Center
05:37PM 41.4203 -105.8622 107° East 385 443 25,100  Level Denver Center
05:38PM 41.3897 -105.7308 107° East 388 447 25,100 -240 Level Denver Center
05:39PM 41.3536 -105.5761 107° East 392 451 24,600 -1,306 Descending Denver Center
05:40PM 41.3233 -105.4494 108° East 382 440 22,400 -2,419 Descending Denver Center
05:42PM 41.2931 -105.3206 107° East 342 394 19,600 -2,613 Descending Denver Center
05:43PM 41.2675 -105.2150 108° East 322 371 17,000 -2,613 Descending Denver Center
05:44PM 41.2486 -105.0839 101° East 323 372 14,200 -2,468 Descending Denver Center
05:45PM 41.2386 -104.9775 97° East 313 360 11,900 -2,371 Descending Denver Center
05:46PM 41.2253 -104.8581 98° East 301 346 9,300 -2,516 Descending Denver Center
05:48PM 41.1556 -104.8105 108° East  Level Estimated
05:55PM 41.1556 -104.8105 108° East  Level Estimated
05:56PM 41.1556 -104.8105 108° East  Level Estimated
05:57PM 41.1556 -104.8105 108° East  Level Estimated

Login

Don't have an account? Register now (free) for customized features, flight alerts, and more!